[[{"header":{"parameterUnit":"m.s-1","parameterCategory":1,"la1":30.2991,"la2":30.254,"lo1":-89.0895,"lo2":-89.0444,"dy":0.0017,"dx":0.0017,"nx":28,"ny":28,"refTime":"2024-02-18T09:00:00:Z","depth":0,"parameterNumber":2,"parameterNumberName":"U-component_of_WINDS"},"data":[0,0,0,0,0,0,0,0,0,0,0,0,0,0,0,0,0,0,0,0,0,0,0,0,0,0,0,0,0,0,0,0,0,0,0,0,0,0,0,0,0,0,0,0,0,0,0,0,0,0,0,0,0,0,0,0,0,0,0.399,0.3989,0,0.3951,0.395,0.395,0.3932,0.3933,0.3933,0.3933,0.3891,0.389,0.3889,0,0,0,0,0,0,0,0,0,0,0,0,0,0.4049,0.4048,0.399,0.3989,0.3989,0.3951,0.395,0.395,0.3932,0.3933,0.3933,0.3933,0.3892,0.389,0.3889,0,0,0,0,0,0,0,0,0,0,0,0,0,0.4018,0.4047,0.399,0.3976,0.3974,0.3951,0.395,0.395,0.3932,0.3933,0.3933,0.3933,0.3892,0.3891,0.3889,0.3877,0,0,0.3884,0.3883,0,0,0,0,0,0,0,0,0.4019,0.4016,0.3978,0.3977,0.3975,0.3947,0.3956,0.3925,0.3932,0.3948,0.3933,0.3933,0.391,0.3907,0.3899,0.3875,0.3873,0.3884,0.3882,0.3882,0.3881,0,0,0,0,0,0,0,0.4022,0.4017,0.3974,0.3978,0.3975,0.3971,0.3967,0.395,0.3929,0.3947,0.3945,0.3941,0.3909,0.3901,0.3898,0.3872,0.3884,0.3882,0.3881,0.388,0.3837,0.3837,0,0,0,0,0,0,0.4026,0.4019,0.3975,0.3973,0.3998,0.397,0.3965,0.3955,0.3929,0.3925,0.3941,0.394,0.3904,0.39,0.3896,0.3881,0.3882,0.388,0.3879,0.3837,0.3837,0.3837,0,0,0,0,0,0,0.4028,0.4022,0.3977,0.3996,0.399,0.3969,0.3958,0.3955,0.3947,0.3925,0.3921,0.3937,0.3904,0.3899,0.3882,0.3879,0.3879,0.3878,0.3837,0.3837,0.3837,0.3849,0,0,0,0,0,0,0.4029,0.4023,0.4018,0.3996,0.3989,0.3963,0.3958,0.3954,0.3944,0.3943,0.392,0.3916,0.3903,0.3885,0.388,0.3877,0.3876,0.3838,0.3837,0.3837,0.3849,0.3849,0.385,0,0,0,0,0,0.4031,0.4023,0.4018,0.4013,0.3982,0.3963,0.3959,0.3945,0.3944,0.3939,0.3925,0.3917,0.388,0.3883,0.3878,0.3874,0.3838,0.3837,0.3837,0.3849,0.3849,0.385,0,0,0,0,0,0,0.4045,0.4019,0.4014,0.3998,0.3983,0.396,0.3954,0.3946,0.3931,0.393,0.3913,0.3908,0.3893,0.3882,0.3885,0.3861,0.3858,0.3857,0.3869,0.3869,0.387,0.3873,0.3875,0,0,0,0,0,0.4046,0.4033,0.4011,0.3999,0.3992,0.3974,0.3965,0.3956,0.394,0.3933,0.3918,0.3902,0.3887,0.3878,0.3863,0.3848,0.3842,0.3842,0.3843,0.3843,0.3842,0.3834,0.3834,0.3836,0.3836,0.3836,0,0,0.4048,0.4032,0.4025,0.4002,0.3989,0.3976,0.3969,0.3955,0.3945,0.3931,0.3914,0.3903,0.3884,0.3868,0.3861,0.3859,0.3841,0.3843,0.3844,0.3842,0.3834,0.3833,0.3833,0.3836,0.3836,0.3836,0,0,0.4045,0.4032,0.402,0.4008,0.399,0.3978,0.3975,0.3954,0.3946,0.393,0.3919,0.3907,0.3881,0.3869,0.3859,0.3852,0.3844,0.3848,0.385,0.3842,0.3842,0.3842,0.384,0.3839,0.3847,0.3847,0.3847,0,0.4049,0.4029,0.4015,0.4003,0.3993,0.398,0.3968,0.3957,0.3934,0.3928,0.3926,0.3894,0.3881,0.3862,0.3861,0.3853,0.385,0.385,0.3843,0.3843,0.3842,0.384,0.3839,0.3848,0.3848,0.3848,0.3848,0,0.4036,0.4023,0.4016,0.3995,0.3984,0.3972,0.3956,0.3947,0.3939,0.3928,0.3911,0.3895,0.3877,0.3872,0.3863,0.3852,0.3851,0.3847,0.3843,0.3843,0.3841,0.384,0.3848,0.3848,0.3848,0.3848,0,0,0.4039,0.4012,0.4009,0.4,0.3979,0.3968,0.3956,0.3939,0.3931,0.3916,0.3905,0.3885,0.3881,0.387,0.386,0.3853,0.385,0.3849,0.3849,0.385,0.3837,0.384,0.3839,0.3845,0.3844,0.3844,0.3838,0,0.4033,0.401,0.3998,0.3981,0.3968,0.3957,0.3946,0.3932,0.3921,0.3909,0.3897,0.3883,0.3879,0.3872,0.3865,0.3852,0.3847,0.3852,0.3834,0.3834,0.3839,0.3838,0.3841,0.3836,0.3837,0.3837,0.3837,0,0.4023,0.4009,0.399,0.3971,0.3966,0.3956,0.394,0.3928,0.3913,0.3905,0.3894,0.3884,0.3871,0.387,0.3851,0.3855,0.3847,0.384,0.3839,0.3836,0.3835,0.3835,0.3834,0.3833,0.3835,0.3835,0.3835,0,0.4027,0.4003,0.3989,0.3982,0.396,0.3953,0.3944,0.3928,0.3919,0.3905,0.3898,0.3883,0.3874,0.3862,0.3849,0.3849,0.3832,0.3829,0.3825,0.3826,0.3822,0.3822,0.3819,0.3817,0.3817,0.3817,0.3817,0,0.4021,0.401,0.3991,0.3982,0.397,0.3956,0.3944,0.3934,0.392,0.3909,0.3899,0.3889,0.3872,0.386,0.3849,0.3836,0.3832,0.3826,0.3823,0.3826,0.3827,0.3821,0.382,0.3817,0.3817,0.3817,0.3817,0,0.4023,0.401,0.3994,0.3975,0.397,0.3962,0.3945,0.3936,0.3926,0.3912,0.3908,0.3891,0.3877,0.3863,0.3843,0.3836,0.3822,0.3819,0.3828,0.3826,0.3823,0.3824,0.3816,0.3814,0.3814,0.3814,0.3814,0,0.402,0.4012,0.3992,0.3984,0.3975,0.3963,0.3953,0.394,0.3931,0.3913,0.3906,0.3891,0.3878,0.3856,0.3841,0.3826,0.3822,0.3821,0.382,0.3824,0.3822,0.3823,0.3822,0.3821,0.3821,0.3821,0.3821,0,0.4016,0.4011,0.3998,0.3983,0.3973,0.396,0.3948,0.3942,0.3926,0.3916,0.3902,0.3892,0.3872,0.3857,0.3841,0.3831,0.3824,0.3822,0.382,0.3823,0.3829,0.3826,0.3829,0.3822,0.3822,0.3822,0.3822,0.3822,0.4016,0.4008,0.3993,0.3979,0.3969,0.3957,0.3949,0.3937,0.3925,0.3908,0.3901,0.3886,0.3872,0.3849,0.3839,0.3828,0.3826,0.3823,0.3823,0.3822,0.3823,0.3831,0.3825,0.3825,0.3825,0.3825,0.3824,0,0.4011,0.4001,0.3989,0.3972,0.3962,0.3956,0.3942,0.3934,0.3921,0.3908,0.3896,0.388,0.3866,0.3851,0.3836,0.383,0.3826,0.3826,0.3826,0.3824,0.3825,0.3828,0.3829,0.3829,0.3829,0.3829,0.3829,0.3829,0.4008,0.3994,0.3987,0.3968,0.3958,0.3944,0.3937,0.3927,0.3916,0.3898,0.3887,0.3878,0.3864,0.3848,0.3835,0.3831,0.3826,0.3828,0.3823,0.3824,0.3824,0.3823,0.3826,0.3827,0.3827,0.3822,0.3822,0.3822]},{"header":{"parameterUnit":"m.s-1","parameterCategory":1,"la1":30.2991,"la2":30.254,"lo1":-89.0895,"lo2":-89.0444,"dy":0.0017,"dx":0.0017,"nx":28,"ny":28,"refTime":"2024-02-18T09:00:00:Z","depth":0,"parameterNumber":3,"parameterNumberName":"V-component_of_WINDS"},"data":[0,0,0,0,0,0,0,0,0,0,0,0,0,0,0,0,0,0,0,0,0,0,0,0,0,0,0,0,0,0,0,0,0,0,0,0,0,0,0,0,0,0,0,0,0,0,0,0,0,0,0,0,0,0,0,0,0,0,-5.3483,-5.3485,0,-5.3643,-5.3645,-5.3647,-5.3597,-5.3594,-5.3591,-5.3587,-5.3748,-5.3755,-5.3763,0,0,0,0,0,0,0,0,0,0,0,0,0,-5.3132,-5.3138,-5.3483,-5.3485,-5.3487,-5.3643,-5.3645,-5.3647,-5.3598,-5.3594,-5.359,-5.3586,-5.3746,-5.3754,-5.3763,0,0,0,0,0,0,0,0,0,0,0,0,0,-5.3287,-5.3141,-5.3483,-5.3481,-5.3483,-5.3643,-5.3645,-5.3648,-5.3599,-5.3594,-5.3589,-5.3584,-5.3743,-5.3754,-5.3765,-5.3934,0,0,-5.3798,-5.3803,0,0,0,0,0,0,0,0,-5.3278,-5.33,-5.348,-5.3482,-5.3484,-5.3595,-5.358,-5.3744,-5.36,-5.3555,-5.3587,-5.3581,-5.3701,-5.3715,-5.3756,-5.3942,-5.3949,-5.3799,-5.3806,-5.3811,-5.3814,0,0,0,0,0,0,0,-5.3268,-5.3293,-5.3546,-5.3482,-5.3485,-5.3472,-5.3488,-5.3611,-5.3654,-5.3558,-5.3555,-5.3575,-5.3701,-5.3746,-5.376,-5.3951,-5.3799,-5.3809,-5.3816,-5.382,-5.4283,-5.4289,0,0,0,0,0,0,-5.3256,-5.3284,-5.3541,-5.3551,-5.3367,-5.3482,-5.3501,-5.3564,-5.3653,-5.3661,-5.3579,-5.3572,-5.3729,-5.3747,-5.3765,-5.397,-5.3811,-5.3821,-5.3828,-5.4278,-5.4284,-5.4291,0,0,0,0,0,0,-5.3249,-5.328,-5.3535,-5.3417,-5.3449,-5.3494,-5.3566,-5.357,-5.3615,-5.3668,-5.3676,-5.3617,-5.3726,-5.375,-5.3893,-5.3975,-5.3826,-5.3836,-5.4271,-5.428,-5.4288,-5.438,0,0,0,0,0,0,-5.3239,-5.3277,-5.3343,-5.3419,-5.3455,-5.3661,-5.3571,-5.3577,-5.3635,-5.3627,-5.3706,-5.3714,-5.3724,-5.3876,-5.3904,-5.3987,-5.3845,-5.4264,-5.4275,-5.4285,-5.437,-5.4391,-5.4409,0,0,0,0,0,-5.3226,-5.3362,-5.3347,-5.3378,-5.3539,-5.3666,-5.3686,-5.3696,-5.3641,-5.3707,-5.3742,-5.3711,-5.3961,-5.3892,-5.3922,-5.401,-5.4259,-5.4272,-5.4284,-5.4361,-5.4387,-5.4408,0,0,0,0,0,0,-5.3294,-5.3372,-5.3356,-5.352,-5.3587,-5.3657,-5.3741,-5.3722,-5.3805,-5.3795,-5.3802,-5.382,-5.3967,-5.4002,-5.3923,-5.4179,-5.4102,-5.4121,-5.415,-5.4175,-5.4193,-5.4182,-5.3854,0,0,0,0,0,-5.3328,-5.3426,-5.3488,-5.3627,-5.3662,-5.3696,-5.3752,-5.3753,-5.3822,-5.385,-5.3895,-5.3962,-5.4055,-5.4117,-5.4206,-5.4375,-5.4391,-5.445,-5.4469,-5.4485,-5.4502,-5.4593,-5.462,-5.4332,-5.4332,-5.4332,0,0,-5.3399,-5.3454,-5.3515,-5.3642,-5.3694,-5.3795,-5.372,-5.3829,-5.3904,-5.3866,-5.4005,-5.404,-5.4115,-5.4272,-5.4343,-5.4306,-5.4585,-5.4501,-5.4513,-5.4521,-5.4609,-5.4636,-5.466,-5.4341,-5.4339,-5.4338,0,0,-5.358,-5.3632,-5.3753,-5.3807,-5.3887,-5.3908,-5.3937,-5.4011,-5.4034,-5.4173,-5.4147,-5.4234,-5.4395,-5.445,-5.4499,-5.4701,-5.4676,-5.4729,-5.483,-5.4919,-5.4942,-5.4962,-5.5034,-5.5059,-5.4746,-5.4746,-5.4746,0,-5.3658,-5.3809,-5.3817,-5.393,-5.3986,-5.3958,-5.408,-5.4131,-5.4236,-5.4275,-5.4232,-5.4434,-5.4483,-5.4652,-5.4701,-5.4742,-5.4774,-5.472,-5.4938,-5.4958,-5.4977,-5.5046,-5.5073,-5.4752,-5.4751,-5.4751,-5.475,0,-5.3901,-5.4007,-5.4095,-5.4198,-5.4264,-5.4381,-5.4406,-5.4472,-5.4467,-5.4493,-5.4635,-5.4692,-5.4792,-5.4832,-5.4829,-5.5001,-5.4976,-5.4936,-5.4858,-5.5011,-5.5075,-5.5101,-5.476,-5.4758,-5.4756,-5.4755,0,0,-5.413,-5.4236,-5.4268,-5.4314,-5.44,-5.4481,-5.4596,-5.4695,-5.4751,-5.4824,-5.492,-5.5057,-5.502,-5.5076,-5.5078,-5.5156,-5.5312,-5.5107,-5.5108,-5.5143,-5.5505,-5.5535,-5.5565,-5.5296,-5.5301,-5.5305,-5.5499,0,-5.4318,-5.4522,-5.4532,-5.4716,-5.4813,-5.4788,-5.4888,-5.495,-5.4978,-5.5063,-5.5092,-5.5189,-5.5134,-5.5167,-5.5243,-5.5277,-5.5385,-5.5263,-5.5385,-5.5389,-5.5367,-5.5599,-5.5631,-5.5811,-5.5524,-5.5528,-5.5532,0,-5.4565,-5.4647,-5.4841,-5.4913,-5.4954,-5.5044,-5.5136,-5.5218,-5.5288,-5.5302,-5.5365,-5.5355,-5.5472,-5.5391,-5.5551,-5.5468,-5.5518,-5.5542,-5.5549,-5.5561,-5.547,-5.5617,-5.5869,-5.5896,-5.5571,-5.5568,-5.5565,0,-5.4712,-5.487,-5.5007,-5.5048,-5.5135,-5.5199,-5.5238,-5.5303,-5.5362,-5.5441,-5.5479,-5.5571,-5.5621,-5.5692,-5.5707,-5.5646,-5.5867,-5.5787,-5.5881,-5.5881,-5.5929,-5.5926,-5.6193,-5.5962,-5.5961,-5.5961,-5.596,0,-5.4922,-5.5041,-5.5075,-5.5159,-5.5292,-5.5302,-5.5434,-5.5468,-5.5527,-5.5616,-5.5599,-5.5683,-5.5698,-5.5785,-5.5798,-5.5929,-5.5951,-5.5965,-5.5967,-5.5967,-5.5965,-5.6,-5.5988,-5.5968,-5.5966,-5.5965,-5.5964,0,-5.5108,-5.5136,-5.5283,-5.5354,-5.5374,-5.547,-5.553,-5.561,-5.5635,-5.5748,-5.5775,-5.5814,-5.5916,-5.5938,-5.6059,-5.6067,-5.6222,-5.6212,-5.6199,-5.6198,-5.6291,-5.6282,-5.659,-5.663,-5.6372,-5.6375,-5.6377,0,-5.524,-5.5332,-5.5413,-5.5473,-5.5515,-5.5611,-5.5671,-5.5684,-5.5747,-5.5834,-5.5904,-5.6004,-5.6085,-5.6248,-5.6286,-5.6378,-5.637,-5.6471,-5.6383,-5.638,-5.6371,-5.6366,-5.6375,-5.6488,-5.6491,-5.6493,-5.6495,0,-5.5472,-5.5481,-5.5569,-5.5662,-5.5734,-5.5808,-5.5877,-5.5927,-5.5949,-5.6021,-5.6125,-5.6188,-5.6311,-5.6411,-5.6503,-5.6541,-5.6523,-5.6522,-5.6549,-5.655,-5.6539,-5.6546,-5.6245,-5.6515,-5.6513,-5.6512,-5.6511,-5.651,-5.5636,-5.5716,-5.5786,-5.5884,-5.5938,-5.6004,-5.6083,-5.6118,-5.6206,-5.6308,-5.631,-5.6424,-5.6491,-5.6613,-5.6657,-5.6746,-5.6714,-5.6753,-5.6763,-5.6772,-5.6781,-5.6525,-5.6762,-5.6762,-5.6761,-5.6761,-5.6761,0,-5.5866,-5.591,-5.6,-5.6099,-5.6176,-5.6152,-5.6228,-5.6294,-5.6395,-5.646,-5.654,-5.666,-5.6756,-5.6802,-5.6896,-5.6958,-5.6952,-5.6983,-5.6978,-5.6988,-5.6803,-5.6771,-5.6986,-5.6986,-5.6986,-5.6986,-5.6986,-5.6986,-5.5995,-5.613,-5.6147,-5.6308,-5.635,-5.6463,-5.6508,-5.6568,-5.662,-5.6755,-5.6836,-5.6865,-5.6922,-5.7021,-5.7108,-5.7119,-5.7154,-5.719,-5.7196,-5.7023,-5.7001,-5.6979,-5.6948,-5.7197,-5.7198,-5.7373,-5.7375,-5.7376]}]]